Weather History for Pope Field Airport, NC

Change the Weather History Date:

Friday, April 12, 2013

  Actual Average Record
Temperature  
Mean Temperature 74 °F -  
Max Temperature 81 °F 74 °F 91 °F (2001)
Min Temperature 67 °F 48 °F 30 °F (1989)
Cooling Degree Days 9    
Growing Degree Days 24 (Base 50)    
Moisture  
Dew Point 65 °F    
Average Humidity 83    
Maximum Humidity 94    
Minimum Humidity 43    
Precipitation  
Precipitation 0.76 in - - ()
Sea Level Pressure  
Sea Level Pressure 29.75 in    
Wind  
Wind Speed 11 mph (SW)    
Max Wind Speed 23 mph    
Max Gust Speed 29 mph    
Visibility 9 miles    
Events Rain , Thunderstorm    
Averages and records for this station are not official NWS values.
T = Trace of Precipitation, MM = Missing Value Source: NWS Daily Summary

Daily Weather History Graph

Daily Weather History Graph

Search for Another Location

Airport:

Trip Planner

Search our weather history database for the weather conditions in past years. The results will help you decide how hot, cold, wet, or windy it might be!

Date:

Astronomy

Apr. 12, 2013 Rise Set
Actual Time 6:47 AM EDT 7:46 PM EDT
Civil Twilight 6:21 AM EDT 8:12 PM EDT
Nautical Twilight 5:50 AM EDT 8:43 PM EDT
Astronomical Twilight 5:19 AM EDT 9:15 PM EDT
Moon 8:00 AM EDT (4/12) 10:09 PM EDT (4/12)
Length of Visible Light 13h 51m
Length of Day
12h 59m
Waxing Crescent, 5% of the Moon is Illuminated
Apr 12
Waxing Crescent
Apr 18
First Quarter
Apr 25
Full
May 2
Last Quarter
May 9
New

Hourly Weather History & Observations

Time (EDT) Temp. Heat Index Dew Point Humidity Pressure Visibility Wind Dir Wind Speed Gust Speed Precip Events Conditions
12:13 AM 71.6 °F - 66.2 °F 83% 29.83 in 10.0 mi South 9.2 mph - N/A   Overcast
12:58 AM 71.1 °F - 67.1 °F 87% 29.83 in 10.0 mi South 8.1 mph 17.3 mph N/A   Overcast
1:03 AM 71.6 °F - 66.2 °F 83% 29.82 in 10.0 mi South 8.1 mph 17.3 mph N/A   Overcast
1:08 AM 71.6 °F - 66.2 °F 83% 29.83 in 10.0 mi SSW 10.4 mph 18.4 mph N/A   Overcast
1:43 AM 71.6 °F - 66.2 °F 83% 29.82 in 10.0 mi SSW 10.4 mph 17.3 mph N/A   Overcast
1:58 AM 71.1 °F - 66.7 °F 86% 29.81 in 10.0 mi SSW 10.4 mph - N/A   Overcast
2:28 AM 71.6 °F - 66.2 °F 83% 29.80 in 10.0 mi SSW 11.5 mph - N/A   Overcast
2:53 AM 71.6 °F - 66.2 °F 83% 29.79 in 10.0 mi SSW 12.7 mph 19.6 mph N/A   Overcast
2:58 AM 71.2 °F - 65.8 °F 83% 29.78 in 10.0 mi South 12.7 mph 19.6 mph N/A   Mostly Cloudy
3:33 AM 71.6 °F - 66.2 °F 83% 29.77 in 10.0 mi South 12.7 mph 21.9 mph N/A   Overcast
3:58 AM 71.2 °F - 65.7 °F 82% 29.76 in 10.0 mi SSW 11.5 mph 20.7 mph N/A   Overcast
4:51 AM 71.6 °F - 66.2 °F 83% 29.77 in 10.0 mi SSW 12.7 mph 18.4 mph N/A Rain Light Rain
4:55 AM 71.6 °F - 66.2 °F 83% 29.77 in 9.0 mi SSW 16.1 mph 21.9 mph N/A Rain Light Rain
4:58 AM 71.1 °F - 65.5 °F 82% 29.78 in 7.0 mi SSW 12.7 mph 21.9 mph 0.00 in Rain Light Rain
5:05 AM 69.8 °F - 66.2 °F 88% 29.78 in 2.5 mi SSW 16.1 mph 21.9 mph N/A Rain , Thunderstorm Heavy Thunderstorms and Rain
5:10 AM 69.8 °F - 66.2 °F 88% 29.78 in 2.0 mi SSW 11.5 mph 21.9 mph N/A Rain , Thunderstorm Heavy Thunderstorms and Rain
5:15 AM 68.0 °F - 66.2 °F 94% 29.76 in 2.5 mi South 11.5 mph 21.9 mph N/A Rain , Thunderstorm Heavy Thunderstorms and Rain
5:20 AM 68.0 °F - 66.2 °F 94% 29.73 in 4.0 mi South 10.4 mph 21.9 mph N/A Rain , Thunderstorm Light Thunderstorms and Rain
5:24 AM 68.0 °F - 66.2 °F 94% 29.74 in 6.0 mi South 12.7 mph 18.4 mph N/A Rain Rain
5:49 AM 68.0 °F - 66.2 °F 94% 29.74 in 7.0 mi South 15.0 mph 21.9 mph N/A Rain Light Rain
5:54 AM 68.0 °F - 66.2 °F 94% 29.74 in 9.0 mi South 12.7 mph 25.3 mph N/A Rain Light Rain
5:57 AM 68.0 °F - 66.2 °F 94% 29.74 in 10.0 mi South 12.7 mph 25.3 mph N/A   Mostly Cloudy
5:58 AM 68.4 °F - 66.0 °F 92% 29.75 in 10.0 mi SSW 10.4 mph 25.3 mph 0.31 in   Mostly Cloudy
6:11 AM 68.0 °F - 66.2 °F 94% 29.74 in 10.0 mi SSW 11.5 mph 19.6 mph N/A Rain Light Rain
6:21 AM 68.0 °F - 66.2 °F 94% 29.74 in 2.5 mi SSW 12.7 mph 24.2 mph N/A Rain Heavy Rain
6:26 AM 68.0 °F - 66.2 °F 94% 29.74 in 3.0 mi SSW 12.7 mph 24.2 mph N/A Rain Light Rain
6:31 AM 68.0 °F - 66.2 °F 94% 29.74 in 8.0 mi SSW 12.7 mph 19.6 mph N/A Rain Rain
6:51 AM 68.0 °F - 66.2 °F 94% 29.75 in 9.0 mi SSW 11.5 mph - N/A Rain Light Rain
6:56 AM 68.0 °F - 66.2 °F 94% 29.75 in 9.0 mi SSW 9.2 mph - N/A Rain Light Rain
6:58 AM 68.0 °F - 66.2 °F 94% 29.77 in 9.0 mi SSW 9.2 mph - 0.24 in Rain Light Rain
7:03 AM 68.0 °F - 64.4 °F 88% 29.75 in 7.0 mi Variable 6.9 mph - N/A Rain Light Rain
7:10 AM 68.0 °F - 64.4 °F 88% 29.76 in 10.0 mi WSW 10.4 mph - N/A   Overcast
7:15 AM 68.0 °F - 66.2 °F 94% 29.75 in 10.0 mi South 6.9 mph - N/A   Overcast
7:58 AM 67.6 °F - 65.8 °F 94% 29.78 in 10.0 mi SSW 6.9 mph - 0.01 in   Overcast
8:13 AM 68.0 °F - 66.2 °F 94% 29.77 in 10.0 mi SSW 10.4 mph - N/A   Overcast
8:18 AM 68.0 °F - 66.2 °F 94% 29.77 in 10.0 mi SSW 8.1 mph - N/A   Overcast
8:19 AM 68.0 °F - 66.2 °F 94% 29.77 in 10.0 mi SSW 9.2 mph - N/A   Light Drizzle
8:36 AM 68.0 °F - 66.2 °F 94% 29.76 in 10.0 mi SSW 10.4 mph - N/A   Overcast
8:49 AM 69.8 °F - 66.2 °F 88% 29.76 in 10.0 mi SSW 10.4 mph - N/A   Overcast
8:56 AM 69.8 °F - 66.2 °F 88% 29.76 in 10.0 mi SSW 10.4 mph - N/A   Overcast
9:04 AM 69.8 °F - 68.0 °F 94% 29.75 in 10.0 mi South 12.7 mph 18.4 mph N/A   Overcast
9:05 AM 69.8 °F - 68.0 °F 94% 29.75 in 10.0 mi South 11.5 mph 18.4 mph N/A   Overcast
9:17 AM 69.8 °F - 68.0 °F 94% 29.75 in 10.0 mi SSW 10.4 mph - N/A   Overcast
9:48 AM 71.6 °F - 68.0 °F 88% 29.75 in 10.0 mi SW 10.4 mph 19.6 mph N/A   Overcast
9:58 AM 71.2 °F - 68.0 °F 89% 29.76 in 10.0 mi SSW 13.8 mph - N/A   Overcast
10:08 AM 71.6 °F - 68.0 °F 88% 29.75 in 10.0 mi SSW 15.0 mph - N/A   Mostly Cloudy
10:13 AM 71.6 °F - 68.0 °F 88% 29.74 in 10.0 mi SW 12.7 mph - N/A   Mostly Cloudy
10:38 AM 73.4 °F - 68.0 °F 83% 29.74 in 10.0 mi SW 13.8 mph - N/A   Mostly Cloudy
10:58 AM 75.2 °F - 67.8 °F 78% 29.75 in 10.0 mi SW 13.8 mph 21.9 mph N/A   Overcast
11:03 AM 75.2 °F - 68.0 °F 78% 29.74 in 10.0 mi SW 12.7 mph 21.9 mph N/A   Mostly Cloudy
11:58 AM 78.3 °F - 68.0 °F 71% 29.74 in 10.0 mi SW 17.3 mph 24.2 mph N/A   Scattered Clouds
12:58 PM 79.2 °F - 66.6 °F 65% 29.72 in 10.0 mi WSW 23.0 mph 27.6 mph N/A   Mostly Cloudy
1:39 PM 78.8 °F - 66.2 °F 65% 29.69 in 10.0 mi WSW 19.6 mph 24.2 mph N/A Rain Light Rain
1:43 PM 78.8 °F - 66.2 °F 65% 29.70 in 10.0 mi West 17.3 mph 24.2 mph N/A   Light Drizzle
1:48 PM 77.0 °F - 66.2 °F 69% 29.71 in 4.0 mi WNW 20.7 mph 24.2 mph N/A Rain Light Rain
1:53 PM 73.4 °F - 68.0 °F 83% 29.72 in 1.0 mi West 18.4 mph 27.6 mph N/A Rain Heavy Rain
1:58 PM 71.2 °F - 66.9 °F 86% 29.72 in 0.8 mi West 11.5 mph 27.6 mph 0.16 in Rain , Thunderstorm Heavy Rain
2:03 PM 69.8 °F - 66.2 °F 88% 29.70 in 1.0 mi West 10.4 mph - N/A Rain , Thunderstorm Light Rain
2:08 PM 69.8 °F - 66.2 °F 88% 29.70 in 6.0 mi West 9.2 mph - N/A Rain , Thunderstorm Light Rain
2:12 PM 69.8 °F - 68.0 °F 94% 29.70 in 10.0 mi West 9.2 mph - N/A   Mostly Cloudy
2:58 PM 73.4 °F - 66.9 °F 80% 29.70 in 10.0 mi WSW 10.4 mph - 0.04 in   Mostly Cloudy
2:59 PM 73.4 °F - 66.2 °F 78% 29.69 in 10.0 mi WSW 9.2 mph - N/A   Light Drizzle
3:09 PM 75.2 °F - 68.0 °F 78% 29.68 in 10.0 mi SW 9.2 mph - N/A   Scattered Clouds
3:58 PM 79.3 °F - 67.5 °F 67% 29.65 in 10.0 mi West 10.4 mph 18.4 mph 0.00 in   Partly Cloudy
4:58 PM 79.7 °F - 64.4 °F 59% 29.65 in 10.0 mi WSW 20.7 mph 27.6 mph N/A   Scattered Clouds
5:58 PM 81.0 °F 81.6 °F 60.1 °F 49% 29.65 in 10.0 mi West 20.7 mph 28.8 mph N/A   Clear
6:58 PM 79.3 °F - 57.9 °F 48% 29.66 in 10.0 mi SW 16.1 mph 24.2 mph N/A   Clear
7:58 PM 75.7 °F - 59.5 °F 57% 29.68 in 10.0 mi SW 9.2 mph - N/A   Clear
8:58 PM 72.7 °F - 59.9 °F 64% 29.69 in 10.0 mi SW 10.4 mph - N/A   Clear
9:58 PM 68.9 °F - 57.4 °F 67% 29.73 in 10.0 mi WSW 9.2 mph - N/A   Clear
10:58 PM 69.1 °F - 47.3 °F 46% 29.75 in 10.0 mi West 9.2 mph - N/A   Clear
11:58 PM 67.5 °F - 43.9 °F 43% 29.79 in 10.0 mi NW 5.8 mph - N/A   Clear